Location: Iesi
(43.5167°N, 13.2333°E)
Time: 09:16:29
(UTC+00:00)

H-2A R/B - Visible Passes

Search period start: 26 November 2020 00:00
Search period end: 06 December 2020 00:00
Orbit: 733 x 837 km, 98.2° (Epoch: 25 November)

Date Brightness Start Highest point End Pass type
(mag) Time Alt. Az. Time Alt. Az. Time Alt. Az.
26 Nov 5.4 05:30:46 10° ENE 05:31:40 10° E 05:32:34 10° E visible
26 Nov 3.2 16:50:05 19° E 16:51:18 21° ENE 16:55:06 10° NNE visible
26 Nov 2.6 18:30:43 55° W 18:30:43 55° W 18:35:28 10° NNW visible
27 Nov 3.8 16:19:04 10° ENE 16:20:44 11° ENE 16:22:24 10° NE visible
27 Nov 1.9 17:59:32 76° NE 17:59:32 76° NE 18:04:32 10° N visible
27 Nov 4.8 19:40:10 13° WNW 19:40:10 13° WNW 19:41:55 10° WNW visible
28 Nov 2.4 17:28:20 41° ENE 17:28:28 42° ENE 17:33:18 10° N visible
28 Nov 4.1 19:08:58 25° WNW 19:08:58 25° WNW 19:12:20 10° NW visible
29 Nov 5.1 05:36:11 10° ENE 05:38:14 12° E 05:40:16 10° ESE visible
29 Nov 3.1 16:57:07 23° ENE 16:57:44 23° ENE 17:01:43 10° NNE visible
29 Nov 3.0 18:37:45 44° WNW 18:37:45 44° WNW 18:41:51 10° NNW visible
30 Nov 3.7 16:25:54 12° ENE 16:27:07 13° ENE 16:29:25 10° NNE visible
30 Nov 2.1 18:06:32 68° N 18:06:32 68° N 18:11:00 10° NNW visible
30 Nov 5.0 19:47:10 11° WNW 19:47:10 11° WNW 19:47:36 10° WNW visible
01 Dec 2.2 17:35:18 47° ENE 17:35:18 47° ENE 17:39:50 10° N visible
01 Dec 4.3 19:15:55 20° WNW 19:15:55 20° WNW 19:18:33 10° NW visible
02 Dec 4.9 05:42:04 10° NE 05:44:47 15° E 05:47:28 10° ESE visible
02 Dec 2.9 17:04:03 26° ENE 17:04:09 26° ENE 17:08:20 10° N visible
02 Dec 3.4 18:44:41 35° WNW 18:44:41 35° WNW 18:48:14 10° NNW visible
03 Dec 3.5 16:32:47 14° ENE 16:33:30 15° ENE 16:36:15 10° NNE visible
03 Dec 2.4 18:13:25 56° NNW 18:13:25 56° NNW 18:17:26 10° NNW visible
04 Dec 2.2 17:42:09 49° NE 17:42:09 49° NE 17:46:20 10° N visible
04 Dec 4.6 19:22:46 17° WNW 19:22:46 17° WNW 19:24:43 10° NW visible
05 Dec 4.8 05:48:07 10° NE 05:51:18 17° E 05:54:29 10° SE visible
05 Dec 2.8 17:10:52 29° ENE 17:10:52 29° ENE 17:14:55 10° N visible
05 Dec 3.7 18:51:29 29° WNW 18:51:29 29° WNW 18:54:33 10° NNW visible
